This is the latest recevied weather packets stored in our database for station/object KK6LVQ-13. If no packets are shown the sender has not sent any weather packets the latest 10 day(s).
| Time | Temp. | Humidity | Pressure | Rain* | Wind** | Luminosity | Snow |
|---|---|---|---|---|---|---|---|
| 1777840168 | 15° C | 69% | 1018.3 hPa | 0 mm | - | 467 W/m² | - |
| 1777839261 | 15° C | 73% | 1018.5 hPa | 0 mm | - | 301 W/m² | - |
| 1777836229 | 14.44° C | 75% | 1018.8 hPa | 0 mm | - | 197 W/m² | - |
| 1777835013 | 13.89° C | 76% | 1018.8 hPa | 0 mm | - | 185 W/m² | - |
| 1777834710 | 13.89° C | 77% | 1018.7 hPa | 0 mm | - | 189 W/m² | - |
| 1777833190 | 13.89° C | 79% | 1018.6 hPa | 0 mm | - | 173 W/m² | - |
| 1777832887 | 13.89° C | 79% | 1018.9 hPa | 0 mm | - | 196 W/m² | - |
| 1777829553 | 12.78° C | 82% | 1018.7 hPa | 0 mm | - | 276 W/m² | - |
| 1777829250 | 12.78° C | 88% | 1018.9 hPa | 0 mm | - | 313 W/m² | - |
| 1777828947 | 12.22° C | 85% | 1018.8 hPa | 0 mm | - | 294 W/m² | - |
| 1777828341 | 12.78° C | 91% | 1018.9 hPa | 0 mm | - | 416 W/m² | - |
| 1777828038 | 12.22° C | 91% | 1018.9 hPa | 0 mm | - | 247 W/m² | - |
| 1777827735 | 11.67° C | 93% | 1018.9 hPa | 0 mm | - | 249 W/m² | - |
| 1777827432 | 11.67° C | 93% | 1018.9 hPa | 0 mm | - | 252 W/m² | - |
| 1777827129 | 11.67° C | 94% | 1018.8 hPa | 0 mm | - | 223 W/m² | - |
| 1777826218 | 11.11° C | 95% | 1018.8 hPa | 0 mm | - | 204 W/m² | - |
| 1777825916 | 11.11° C | 96% | 1019 hPa | 0 mm | - | 204 W/m² | - |
| 1777825613 | 11.11° C | 96% | 1018.8 hPa | 0 mm | - | 204 W/m² | - |
| 1777825311 | 11.11° C | 96% | 1018.8 hPa | 0 mm | - | 184 W/m² | - |
| 1777825007 | 11.11° C | 96% | 1018.8 hPa | 0 mm | - | 161 W/m² | - |
| 1777824703 | 11.11° C | 97% | 1018.7 hPa | 0 mm | - | 145 W/m² | - |
| 1777824401 | 10.56° C | 96% | 1018.6 hPa | 1.27 mm | - | 128 W/m² | - |
| 1777824096 | 11.11° C | 96% | 1018.7 hPa | 1.27 mm | - | 84 W/m² | - |
| 1777823793 | 10.56° C | 96% | 1018.5 hPa | 0 mm | - | 108 W/m² | - |
| 1777822583 | 10.56° C | 96% | 1018.7 hPa | 1.78 mm | - | 74 W/m² | - |
* Rain latest hour (hover to see other rain measurements)
** Current wind speed in m/s (hover to see current wind gust speed)